Погода в Боровом

Россия / Тюменская область     56°09′57″N   69°40′59″E
темп.,
°C
ветер,
м/с
пор.,
м/с
влажн.,
%
обл.,
%
осадки,
мм/ч
давл.,
гПа
погр.,
м
23 апреля, пт
пт2323:00+3ююв6135284 0.0 1041331
02:00+2ююв61353100 0.0 1040377
05:00+1ююв6135882 0.0 1040339
08:00+3ю61254100 0.0 1040453
11:00+8ю71041100 0.0 1040828
14:00+11ю7836100 0.0 10381156
17:00+10ю5737100 0.0 10381265
20:00+7ююв4944100 0.0 1037199
24 апреля, сб
сб2423:00+5ююв41249100 0.0 1036281
02:00+4ююв51154100 0.0 1035262
05:00+3ююв41060100 0.0 1034235
08:00+5ю51049100 0.0 1033422
11:00+9ю6836100 0.0 10311063
14:00+10ю6833100 0.0 10301270
17:00+9ю5842100 0.0 1029968
20:00+7ююв4850100 0.0 1028262
25 апреля, вс
вс2523:00+5юв4956100 0.0 1026254
02:00+4юв4960100 0.0 1025228
05:00+5юв41059100 0.0 1023250
08:00+6юв61254100 0.0 1022474
11:00+10юв81142100 0.0 1020908
14:00+14ююв8103296 0.0 10182249
17:00+13юв6113495 0.0 10172212
20:00+11ю3647100 0.0 1016140
26 апреля, пн
пн2623:00+9ю496941 0.1 1016276
02:00+9ю51171100 0.0 1014334
05:00+9ююз61276100 0.2 1013603
08:00+9зюз711633 0.0 10151176
11:00+11зюз8104777 0.0 10151913
14:00+12з81135100 0.0 10162647
17:00+10зюз475523 0.4 1017758
20:00+8юз48614 0.2 1018180
27 апреля, вт
вт2723:00+6юз410655 0.2 1018193
02:00+5юз4116231 0.0 1018221
05:00+4юз3763100 0.0 1018120
08:00+9юз5850100 0.0 1018377
11:00+9юз7855100 0.0 1017950
14:00+8ю6776100 0.3 1014882
17:00+6юв4688100 1.6 1012524
20:00+6в3593100 0.6 1009258